STARLINK-33565, 62288

Orbit data source: Space-Track

STARLINK-33565, 62288 is a payload satellite owned by SpaceX/Seattle (US) in LEO that was launched on Sun, 08 Dec 2024 UTC via an FALCON 9 launch vehicle from the Air Force Eastern Test Range (AFETR). Payload-class satellites include a variety of spacecraft equipped with specific instruments for various scientific and technological missions. These include communications satellites like Starlink; space stations such as the ISS; scientific satellites like the Hubble; Earth observation satellites from companies like Planet Labs, Umbra, and HawkEye 360; GPS; miniature CubeSats for education and research; and military/defense satellites.

Loading next visibility...
Identifier
62288, 2024-237X
Orbit
LEO
Country
Flag of USUS
Related business
Manufacturer
SpaceX/Seattle
Mission
Operational Commercial Communications
Bus & Motor
STARLINK V2MO, Unknown motor
Mass
530 kg wet, ~500 kg dry
Launch date (UTC)
2024-12-08 (2 years ago)
Launch vehicle
FALCON 9
Launch site
Air Force Eastern Test Range (AFETR)
Object type
Payload
Rocket body
Debris
Shape & HBR
Box + 2 Pan, 17.7 m
Radar Cross Section
36.964 m², Large (>1 m²)

Expand to show TLE details & history
Last TLE update: 1 day ago

TLE from 1 day ago
0 STARLINK-33565
1 62288U 24237X   26170.50348519  .00012108  00000-0  44865-3 0  9997
2 62288  43.0036 350.0686 0002693 271.8041  88.2502 15.27590734 86894
Epoch: 2026-06-19T12:05Z
TLE epoch observation values (Epoch: 2026-06-19T12:05:01.120Z)
Latitude
-0.00003°
Longitude
-98.91763°
Altitude
482.737 km
Speed
7.626 km/s
True Right ascension
23h 20m 16s
True Declination
0° 00' 00"
Sunlit
Object was in daylight at epoch
Visualization orbit readout
Latitude
Unknown
Longitude
Unknown
Altitude
Unknown
Speed
Unknown
Apparent Right ascension
Unknown
Apparent Declination
Unknown
Sunlit
N/A
Visualization observer readout
Local Sidereal Time
07:24:21
Azimuth
Unknown
Elevation
Unknown
Doppler factor
Unknown
Orbital elements
Apogee altitude
486.81 km
Perigee altitude
483.113 km
Semi-major axis
6,863.099 km
Eccentricity
0.00027
Inclination
43.0036°
RAAN
350.0686°
Arg. of periapsis
271.8041°
True anomaly
88.28105°
Mean anomaly
88.2502°
Eccentric anomaly
88.26562°
Mean motion
3.81736 °/min
Orbital period
94.31 mins
BSTAR
0.00044865
Loading maneuver chart data...
Computing Atmospheric mass density...
Loading historical data...
Loading historical data...
Loading historical data...
Loading historical data...
Loading historical data...
Loading historical data...
Loading historical data...

Documentation

Showing up to 5 results
|